Вернуться в каталог

FENGYUN 1C DEB

АктивенSSO
NORAD 31815·DEBRIS·🇨🇳 China

Запущен May 10, 1999 с Taiyuan Satellite Launch Center

Loading…

Ближайшие Пролёты (ближайшие 24 часа)

TLE

СвежийSource: Space-Track

Эпоха: Sep 12, 2026, 16:11 UTC

1 31815U 99025CHD 26255.67491808  .00000066  00000-0  60752-4 0  9992
2 31815  98.7943 240.6209 0058233 327.1602  32.5956 14.10330839994009

Отслеживайте FENGYUN 1C DEB в реальном времени с AllMySat

Download on the App Store